TOM9KY EGCC-LGZA

Flight info

Callsign TOM9KY
Flight time N/A
Altitude 37000
Route LISTO L612 HON L15 MOTOX DCT RUCAC DCT LESDO DCT BUBLI DCT LUVAL DCT SHARA DCT DEVDI DCT RIPUS DCT RESIA DCT TNT DCT LABIN DCT ELGUS DCT AIOSA DCT ENOXA DCT LUPAL DCT LATAN UM872 ASTUS
Aircraft B38M/M-SDE1FGHILORVWXY/HB1

Departure

Time N/A
Airport Manchester Airport (EGCC)

Arrival

Time 2026-05-08 12:29
Airport Zakynthos International Airport Dionysios Solomos (LGZA)
Time Latitude Longitude Altitude Speed Heading
2026-05-08 12:01 39.24280 19.06603 36976 ft 499 kts 140°
2026-05-08 12:01 39.21911 19.09695 36475 ft 494 kts 141°
2026-05-08 12:01 39.19496 19.12832 35597 ft 498 kts 141°
2026-05-08 12:01 39.17049 19.16013 34943 ft 498 kts 141°
2026-05-08 12:02 39.14625 19.19164 34586 ft 491 kts 142°
2026-05-08 12:02 39.12243 19.22255 34300 ft 483 kts 142°
2026-05-08 12:02 39.09854 19.25351 34025 ft 492 kts 142°
2026-05-08 12:02 39.07415 19.28511 33680 ft 502 kts 142°
2026-05-08 12:03 39.04930 19.31726 33329 ft 509 kts 142°
2026-05-08 12:03 39.02424 19.34965 32927 ft 512 kts 142°
2026-05-08 12:03 38.99909 19.38211 32259 ft 512 kts 142°
2026-05-08 12:03 38.97388 19.41462 31305 ft 516 kts 143°
2026-05-08 12:04 38.94880 19.44691 30255 ft 523 kts 143°
2026-05-08 12:04 38.92308 19.48005 29473 ft 521 kts 143°
2026-05-08 12:04 38.89772 19.51268 29091 ft 511 kts 143°
2026-05-08 12:04 38.87315 19.54423 28704 ft 501 kts 144°
2026-05-08 12:05 38.84872 19.57555 28328 ft 495 kts 144°
2026-05-08 12:05 38.82411 19.60706 27930 ft 503 kts 143°
2026-05-08 12:05 38.79928 19.63886 27586 ft 506 kts 143°
2026-05-08 12:05 38.77436 19.67073 27368 ft 506 kts 143°
2026-05-08 12:06 38.74944 19.70257 27165 ft 504 kts 143°
2026-05-08 12:06 38.72462 19.73425 26971 ft 503 kts 143°
2026-05-08 12:06 38.69986 19.76581 26648 ft 501 kts 143°
2026-05-08 12:06 38.67529 19.79711 25987 ft 496 kts 143°
2026-05-08 12:07 38.65083 19.82823 25296 ft 495 kts 143°
2026-05-08 12:07 38.62650 19.85915 24684 ft 491 kts 143°
2026-05-08 12:07 38.60235 19.88980 24048 ft 489 kts 143°
2026-05-08 12:07 38.57821 19.92042 23373 ft 485 kts 143°
2026-05-08 12:08 38.55478 19.95014 22676 ft 470 kts 143°
2026-05-08 12:08 38.53230 19.97862 22109 ft 454 kts 143°
2026-05-08 12:08 38.51016 20.00661 21525 ft 440 kts 143°
2026-05-08 12:08 38.48868 20.03377 20926 ft 428 kts 143°
2026-05-08 12:09 38.46770 20.06023 20379 ft 436 kts 143°
2026-05-08 12:09 38.44400 20.08331 19940 ft 419 kts 163°
2026-05-08 12:09 38.41682 20.09314 19622 ft 398 kts 186°
2026-05-08 12:09 38.39004 20.08882 19315 ft 384 kts 208°
2026-05-08 12:10 38.36735 20.07215 19113 ft 375 kts 222°
2026-05-08 12:10 38.34587 20.05318 19118 ft 377 kts 220°
2026-05-08 12:10 38.32325 20.03685 18963 ft 371 kts 206°
2026-05-08 12:10 38.29797 20.03260 18869 ft 365 kts 188°
2026-05-08 12:11 38.27350 20.03227 18723 ft 342 kts 193°
2026-05-08 12:11 38.24934 20.03006 18426 ft 352 kts 194°
2026-05-08 12:11 38.22529 20.02765 17919 ft 341 kts 194°
2026-05-08 12:11 38.20230 20.02520 17407 ft 331 kts 194°
2026-05-08 12:12 38.17969 20.02268 16922 ft 321 kts 195°
2026-05-08 12:12 38.15782 20.02019 16477 ft 311 kts 195°
2026-05-08 12:12 38.13661 20.01774 16064 ft 301 kts 195°
2026-05-08 12:12 38.11604 20.01536 15611 ft 294 kts 195°
2026-05-08 12:13 38.09578 20.01300 15052 ft 291 kts 195°
2026-05-08 12:13 38.07564 20.01065 14511 ft 288 kts 195°
2026-05-08 12:13 38.05577 20.00833 14067 ft 287 kts 194°
2026-05-08 12:13 38.03611 20.00604 13927 ft 279 kts 195°
2026-05-08 12:14 38.01710 20.00382 13810 ft 269 kts 195°
2026-05-08 12:14 37.99870 20.00209 13671 ft 265 kts 188°
2026-05-08 12:14 37.98056 20.00791 13557 ft 278 kts 162°
2026-05-08 12:14 37.96520 20.02367 13234 ft 296 kts 137°
2026-05-08 12:15 37.95566 20.04705 12885 ft 311 kts 110°
2026-05-08 12:15 37.95413 20.07460 12554 ft 318 kts 82°
2026-05-08 12:15 37.96055 20.10123 12206 ft 317 kts 67°
2026-05-08 12:15 37.96856 20.12709 11883 ft 316 kts 62°
2026-05-08 12:16 37.98135 20.14904 11584 ft 306 kts 42°
2026-05-08 12:16 37.99364 20.17121 11231 ft 311 kts 69°
2026-05-08 12:16 37.99621 20.19776 10939 ft 302 kts 105°
2026-05-08 12:16 37.98825 20.22131 10604 ft 284 kts 137°
2026-05-08 12:17 37.97538 20.23949 10260 ft 281 kts 140°
2026-05-08 12:17 37.96453 20.26060 9969 ft 291 kts 121°
2026-05-08 12:17 37.95628 20.28410 9649 ft 291 kts 120°
2026-05-08 12:17 37.94832 20.30687 9565 ft 275 kts 121°
2026-05-08 12:18 37.94072 20.32868 9339 ft 266 kts 121°
2026-05-08 12:18 37.93340 20.34968 9135 ft 256 kts 121°
2026-05-08 12:18 37.92637 20.36989 8941 ft 246 kts 121°
2026-05-08 12:18 37.92186 20.38284 8815 ft 239 kts 121°
2026-05-08 12:19 37.91521 20.40196 8531 ft 235 kts 121°
2026-05-08 12:19 37.90865 20.42083 8229 ft 233 kts 121°
2026-05-08 12:19 37.90216 20.43946 7920 ft 230 kts 121°
2026-05-08 12:19 37.89575 20.45786 7622 ft 228 kts 121°
2026-05-08 12:20 37.88939 20.47610 7308 ft 225 kts 121°
2026-05-08 12:20 37.88310 20.49408 7014 ft 222 kts 121°
2026-05-08 12:20 37.87687 20.51193 6715 ft 220 kts 121°
2026-05-08 12:20 37.87069 20.52964 6402 ft 219 kts 121°
2026-05-08 12:21 37.86348 20.54619 6096 ft 209 kts 136°
2026-05-08 12:21 37.85393 20.55963 5786 ft 204 kts 143°
2026-05-08 12:21 37.84409 20.57257 5444 ft 204 kts 143°
2026-05-08 12:21 37.83462 20.58586 5121 ft 208 kts 130°
2026-05-08 12:22 37.83079 20.60369 4801 ft 221 kts 94°
2026-05-08 12:22 37.83363 20.62322 4512 ft 222 kts 78°
2026-05-08 12:22 37.83737 20.64103 4338 ft 205 kts 79°
2026-05-08 12:22 37.84081 20.65817 4007 ft 198 kts 80°
2026-05-08 12:23 37.84413 20.67528 3463 ft 201 kts 83°
2026-05-08 12:23 37.84736 20.69221 3115 ft 193 kts 84°
2026-05-08 12:23 37.85042 20.70843 2796 ft 186 kts 84°
2026-05-08 12:23 37.85328 20.72411 2542 ft 180 kts 86°
2026-05-08 12:24 37.85609 20.73947 1992 ft 179 kts 85°
2026-05-08 12:24 37.85897 20.75425 1633 ft 167 kts 86°
2026-05-08 12:24 37.86159 20.76832 1496 ft 163 kts 86°
2026-05-08 12:24 37.86411 20.78218 1537 ft 164 kts 88°
2026-05-08 12:25 37.86672 20.79629 1724 ft 165 kts 87°
2026-05-08 12:25 37.86934 20.81051 1948 ft 166 kts 88°
2026-05-08 12:25 37.87178 20.82458 2235 ft 167 kts 94°
2026-05-08 12:25 37.86965 20.83812 2178 ft 150 kts 132°
2026-05-08 12:26 37.86190 20.84516 2030 ft 135 kts 171°
2026-05-08 12:26 37.85255 20.84667 1889 ft 136 kts 169°
2026-05-08 12:26 37.84359 20.84963 1725 ft 133 kts 165°
2026-05-08 12:26 37.83468 20.85294 1557 ft 134 kts 165°
2026-05-08 12:27 37.82571 20.85630 1418 ft 135 kts 164°
2026-05-08 12:27 37.81679 20.85964 1232 ft 136 kts 165°
2026-05-08 12:27 37.80817 20.86286 1073 ft 123 kts 165°
2026-05-08 12:27 37.80011 20.86587 888 ft 119 kts 165°
2026-05-08 12:28 37.79216 20.86885 720 ft 121 kts 165°
2026-05-08 12:28 37.78394 20.87190 569 ft 125 kts 163°
2026-05-08 12:28 37.77559 20.87510 423 ft 125 kts 163°
2026-05-08 12:28 37.76735 20.87821 225 ft 121 kts 164°
2026-05-08 12:29 37.75934 20.88116 54 ft 119 kts 164°
2026-05-08 12:29 37.75238 20.88373 23 ft 76 kts 163°
2026-05-08 12:29 37.74928 20.88487 21 ft 34 kts 164°
2026-05-08 12:29 37.74700 20.88572 24 ft 29 kts 164°
2026-05-08 12:30 37.74592 20.88581 24 ft 8 kts 135°
2026-05-08 12:30 37.74588 20.88608 23 ft 0 kts 52°
2026-05-08 12:30 37.74602 20.88610 24 ft 6 kts 358°
2026-05-08 12:30 37.74690 20.88576 25 ft 20 kts 342°
2026-05-08 12:31 37.74859 20.88514 22 ft 30 kts 345°
2026-05-08 12:31 37.75035 20.88469 22 ft 24 kts 17°
2026-05-08 12:31 37.75126 20.88527 23 ft 12 kts 358°
2026-05-08 12:31 37.75209 20.88504 26 ft 13 kts 341°
2026-05-08 12:32 37.75297 20.88470 22 ft 8 kts 344°
2026-05-08 12:32 37.75339 20.88455 48 ft 5 kts 347°
2026-05-08 12:32 37.75352 20.88468 10 ft 3 kts 63°
2026-05-08 12:32 37.75364 20.88514 25 ft 6 kts 73°
2026-05-08 12:33 37.75369 20.88532 24 ft 0 kts 73°
2026-05-08 12:33 37.75369 20.88535 24 ft 0 kts 73°